TimeEST,TemperatureF,Dew PointF,Humidity,Sea Level PressureIn,VisibilityMPH,Wind Direction,Wind SpeedMPH,Gust SpeedMPH,PrecipitationIn,Events,Conditions,WindDirDegrees,DateUTC
12:15 AM,15.8,-0.4,49,30.12,10.0,WSW,6.9,-,N/A,,Clear,250,2014-01-28 05:15:00
12:35 AM,15.8,-0.4,49,30.12,10.0,West,9.2,-,N/A,,Clear,260,2014-01-28 05:35:00
12:55 AM,15.8,-0.4,49,30.13,10.0,West,8.1,-,N/A,,Clear,260,2014-01-28 05:55:00
1:15 AM,14.0,-0.4,53,30.14,10.0,WSW,6.9,-,N/A,,Clear,240,2014-01-28 06:15:00
1:35 AM,14.0,-2.2,49,30.15,10.0,WSW,11.5,18.4,N/A,,Clear,250,2014-01-28 06:35:00
1:55 AM,14.0,-4.0,45,30.16,10.0,West,8.1,20.7,N/A,,Clear,260,2014-01-28 06:55:00
2:15 AM,14.0,-5.8,41,30.17,10.0,West,4.6,-,N/A,,Clear,260,2014-01-28 07:15:00
2:35 AM,12.2,-4.0,48,30.19,10.0,West,10.4,-,N/A,,Clear,260,2014-01-28 07:35:00
2:55 AM,12.2,-5.8,45,30.19,10.0,West,6.9,-,N/A,,Clear,270,2014-01-28 07:55:00
3:15 AM,10.4,-4.0,52,30.20,10.0,WSW,6.9,-,N/A,,Clear,250,2014-01-28 08:15:00
3:35 AM,10.4,-4.0,52,30.21,10.0,West,10.4,17.3,N/A,,Clear,260,2014-01-28 08:35:00
3:55 AM,10.4,-5.8,48,30.22,10.0,West,4.6,-,N/A,,Clear,260,2014-01-28 08:55:00
4:15 AM,10.4,-5.8,48,30.23,10.0,WSW,6.9,-,N/A,,Clear,240,2014-01-28 09:15:00
4:35 AM,10.4,-7.6,44,30.23,10.0,WSW,9.2,-,N/A,,Clear,250,2014-01-28 09:35:00
4:55 AM,8.6,-7.6,48,30.25,10.0,WSW,8.1,-,N/A,,Clear,250,2014-01-28 09:55:00
5:15 AM,8.6,-5.8,52,30.26,10.0,WSW,9.2,-,N/A,,Clear,250,2014-01-28 10:15:00
5:35 AM,8.6,-5.8,52,30.28,10.0,WSW,5.8,-,N/A,,Clear,250,2014-01-28 10:35:00
5:55 AM,8.6,-5.8,52,30.29,10.0,WSW,8.1,-,N/A,,Clear,250,2014-01-28 10:55:00
6:15 AM,8.6,-5.8,52,30.30,10.0,West,4.6,-,N/A,,Clear,260,2014-01-28 11:15:00
6:35 AM,8.6,-5.8,52,30.30,10.0,West,6.9,-,N/A,,Clear,260,2014-01-28 11:35:00
6:55 AM,8.6,-5.8,52,30.31,10.0,West,5.8,-,N/A,,Clear,270,2014-01-28 11:55:00
7:15 AM,8.6,-5.8,52,30.32,10.0,WSW,6.9,-,N/A,,Clear,250,2014-01-28 12:15:00
7:35 AM,6.8,-5.8,56,30.33,10.0,West,8.1,-,N/A,,Clear,270,2014-01-28 12:35:00
7:55 AM,6.8,-5.8,56,30.34,10.0,WSW,6.9,-,N/A,,Clear,250,2014-01-28 12:55:00
8:15 AM,6.8,-5.8,56,30.35,10.0,West,6.9,-,N/A,,Clear,260,2014-01-28 13:15:00
8:35 AM,6.8,-5.8,56,30.35,10.0,West,8.1,-,N/A,,Clear,260,2014-01-28 13:35:00
8:55 AM,6.8,-5.8,56,30.36,10.0,West,5.8,-,N/A,,Clear,280,2014-01-28 13:55:00
9:15 AM,6.8,-7.6,52,30.38,10.0,West,6.9,-,N/A,,Clear,280,2014-01-28 14:15:00
9:35 AM,8.6,-7.6,48,30.38,10.0,West,8.1,-,N/A,,Clear,280,2014-01-28 14:35:00
9:55 AM,8.6,-7.6,48,30.38,10.0,West,6.9,-,N/A,,Clear,280,2014-01-28 14:55:00
10:15 AM,8.6,-7.6,48,30.38,10.0,West,9.2,-,N/A,,Clear,270,2014-01-28 15:15:00
10:35 AM,8.6,-5.8,52,30.38,10.0,West,6.9,-,N/A,,Clear,260,2014-01-28 15:35:00
10:55 AM,10.4,-7.6,44,30.37,10.0,WNW,11.5,16.1,N/A,,Unknown,290,2014-01-28 15:55:00
11:15 AM,10.4,-5.8,48,30.37,10.0,West,6.9,-,N/A,,Clear,260,2014-01-28 16:15:00
11:35 AM,10.4,-5.8,48,30.36,10.0,West,6.9,-,N/A,,Clear,260,2014-01-28 16:35:00
11:55 AM,10.4,-5.8,48,30.35,10.0,WSW,5.8,-,N/A,,Clear,250,2014-01-28 16:55:00
12:15 PM,12.2,-5.8,45,30.34,10.0,West,5.8,-,N/A,,Clear,270,2014-01-28 17:15:00
12:35 PM,12.2,-5.8,45,30.33,10.0,WSW,5.8,-,N/A,,Clear,250,2014-01-28 17:35:00
12:55 PM,12.2,-7.6,41,30.32,10.0,WSW,5.8,-,N/A,,Mostly Cloudy,240,2014-01-28 17:55:00
1:15 PM,12.2,-5.8,45,30.31,10.0,West,5.8,-,N/A,,Mostly Cloudy,260,2014-01-28 18:15:00
1:35 PM,12.2,-7.6,41,30.32,10.0,WSW,4.6,-,N/A,,Partly Cloudy,240,2014-01-28 18:35:00
1:55 PM,12.2,-7.6,41,30.32,10.0,WSW,6.9,-,N/A,,Scattered Clouds,250,2014-01-28 18:55:00
2:15 PM,12.2,-7.6,41,30.32,10.0,WNW,5.8,-,N/A,,Mostly Cloudy,300,2014-01-28 19:15:00
2:35 PM,12.2,-7.6,41,30.31,10.0,SW,5.8,-,N/A,,Overcast,220,2014-01-28 19:35:00
2:55 PM,12.2,-7.6,41,30.32,10.0,West,4.6,-,N/A,,Overcast,260,2014-01-28 19:55:00
3:15 PM,14.0,-7.6,38,30.32,10.0,West,4.6,-,N/A,,Overcast,260,2014-01-28 20:15:00
3:35 PM,12.2,-7.6,41,30.31,10.0,WSW,3.5,-,N/A,,Mostly Cloudy,250,2014-01-28 20:35:00
3:55 PM,12.2,-7.6,41,30.31,10.0,WNW,3.5,-,N/A,,Mostly Cloudy,290,2014-01-28 20:55:00
4:15 PM,14.0,-7.6,38,30.31,10.0,WSW,4.6,-,N/A,,Mostly Cloudy,250,2014-01-28 21:15:00
4:35 PM,14.0,-7.6,38,30.31,10.0,SSW,3.5,-,N/A,,Overcast,200,2014-01-28 21:35:00
4:55 PM,14.0,-7.6,38,30.31,10.0,SW,3.5,-,N/A,,Overcast,230,2014-01-28 21:55:00
5:15 PM,12.2,-7.6,41,30.30,10.0,WSW,3.5,-,N/A,,Mostly Cloudy,250,2014-01-28 22:15:00
5:35 PM,12.2,-5.8,45,30.30,10.0,SW,3.5,-,N/A,,Partly Cloudy,230,2014-01-28 22:35:00
5:55 PM,12.2,-5.8,45,30.30,10.0,SSW,4.6,-,N/A,,Scattered Clouds,210,2014-01-28 22:55:00
6:15 PM,12.2,-5.8,45,30.30,10.0,SW,3.5,-,N/A,,Scattered Clouds,220,2014-01-28 23:15:00
6:35 PM,12.2,-4.0,48,30.30,10.0,Calm,Calm,-,N/A,,Scattered Clouds,0,2014-01-28 23:35:00
6:55 PM,12.2,-4.0,48,30.30,10.0,SW,3.5,-,N/A,,Scattered Clouds,220,2014-01-28 23:55:00
7:15 PM,12.2,-4.0,48,30.29,10.0,Calm,Calm,-,N/A,,Partly Cloudy,0,2014-01-29 00:15:00
7:35 PM,12.2,-2.2,53,30.30,10.0,Calm,Calm,-,N/A,,Clear,0,2014-01-29 00:35:00
7:55 PM,12.2,-4.0,48,30.29,10.0,WSW,3.5,-,N/A,,Partly Cloudy,250,2014-01-29 00:55:00
8:15 PM,12.2,-4.0,48,30.28,10.0,Calm,Calm,-,N/A,,Clear,0,2014-01-29 01:15:00
8:35 PM,12.2,-4.0,48,30.27,10.0,Calm,Calm,-,N/A,,Clear,0,2014-01-29 01:35:00
8:55 PM,12.2,-4.0,48,30.27,10.0,Calm,Calm,-,N/A,,Clear,0,2014-01-29 01:55:00
9:15 PM,12.2,-4.0,48,30.26,10.0,Calm,Calm,-,N/A,,Scattered Clouds,0,2014-01-29 02:15:00
9:35 PM,12.2,-4.0,48,30.26,10.0,Calm,Calm,-,N/A,,Mostly Cloudy,0,2014-01-29 02:35:00
9:55 PM,12.2,-4.0,48,30.24,10.0,Calm,Calm,-,N/A,,Overcast,0,2014-01-29 02:55:00
10:15 PM,12.2,-2.2,53,30.25,10.0,WSW,3.5,-,N/A,,Mostly Cloudy,250,2014-01-29 03:15:00
10:35 PM,10.4,-2.2,57,30.27,9.0,SW,4.6,-,N/A,,Overcast,230,2014-01-29 03:35:00
10:55 PM,10.4,-0.4,62,30.25,5.0,West,3.5,-,N/A,,Overcast,260,2014-01-29 03:55:00
11:15 PM,10.4,1.4,67,30.24,3.0,West,3.5,-,N/A,,Overcast,270,2014-01-29 04:15:00
11:35 PM,10.4,3.2,73,30.23,3.0,West,3.5,-,N/A,,Overcast,260,2014-01-29 04:35:00
11:55 PM,10.4,5.0,79,30.22,3.0,West,4.6,-,N/A,,Overcast,270,2014-01-29 04:55:00